| time (UTC) | temp F | wind direction | speed knots | gust knots | rain 1hr in | rain 24hr in | rain mn in | humidity % | barometer mb |
| 20260505152904 | 62 | 35 | 4.3 | 7.8 | 0.00 | 0.00 | 0.00 | 60 | 1011.2 |
| 20260505151906 | 62 | 10 | 4.3 | 7.8 | 0.00 | 0.00 | 0.00 | 61 | 1011.2 |
| 20260505150904 | 62 | 14 | 4.3 | 7.8 | 0.00 | 0.00 | 0.00 | 60 | 1011.3 |
| 20260505150405 | 62 | 30 | 4.3 | 8.7 | 0.00 | 0.00 | 0.00 | 60 | 1011.3 |
| 20260505140403 | 61 | 19 | 2.6 | 4.3 | 0.00 | 0.00 | 0.00 | 62 | 1011.5 |
| 20260505124903 | 60 | 38 | 5.2 | 10.4 | 0.00 | 0.00 | 0.00 | 63 | 1011.9 |
| 20260505124403 | 61 | 47 | 4.3 | 10.4 | 0.00 | 0.00 | 0.00 | 63 | 1012.0 |
| 20260505123904 | 61 | 34 | 4.3 | 10.4 | 0.00 | 0.00 | 0.00 | 64 | 1012.0 |
| 20260505122904 | 60 | 35 | 7.0 | 10.4 | 0.00 | 0.00 | 0.00 | 64 | 1012.0 |
| 20260505122405 | 60 | 30 | 4.3 | 10.4 | 0.00 | 0.00 | 0.00 | 64 | 1011.9 |
| 20260505121904 | 60 | 10 | 5.2 | 10.4 | 0.00 | 0.00 | 0.00 | 65 | 1011.9 |
| 20260505121404 | 60 | 19 | 4.3 | 8.7 | 0.00 | 0.00 | 0.00 | 65 | 1011.9 |
| 20260505120903 | 59 | 23 | 6.1 | 11.3 | 0.00 | 0.00 | 0.00 | 65 | 1011.9 |
| 20260505115903 | 59 | 45 | 4.3 | 10.4 | 0.00 | 0.00 | 0.00 | 65 | 1012.0 |
| 20260505115405 | 59 | 32 | 7.0 | 12.2 | 0.00 | 0.00 | 0.00 | 65 | 1012.0 |
| 20260505114904 | 59 | 39 | 5.2 | 10.4 | 0.00 | 0.00 | 0.00 | 66 | 1012.0 |
| 20260505114404 | 59 | 46 | 5.2 | 10.4 | 0.00 | 0.00 | 0.00 | 65 | 1012.0 |
| 20260505113904 | 59 | 37 | 5.2 | 10.4 | 0.00 | 0.00 | 0.00 | 65 | 1012.0 |
| 20260505113404 | 60 | 48 | 5.2 | 12.2 | 0.00 | 0.00 | 0.00 | 64 | 1012.0 |
| 20260505112904 | 60 | 47 | 6.1 | 11.3 | 0.00 | 0.00 | 0.00 | 64 | 1012.0 |
| 20260505112404 | 60 | 26 | 6.1 | 12.2 | 0.00 | 0.00 | 0.00 | 63 | 1012.0 |
| 20260505111904 | 61 | 32 | 7.8 | 12.2 | 0.00 | 0.00 | 0.00 | 61 | 1012.1 |
| 20260505111403 | 61 | 36 | 4.3 | 12.2 | 0.00 | 0.00 | 0.00 | 62 | 1012.0 |
| 20260505110404 | 60 | 13 | 4.3 | 13.9 | 0.00 | 0.00 | 0.00 | 64 | 1012.1 |
| 20260505101903 | 59 | 28 | 6.1 | 11.3 | 0.00 | 0.00 | 0.00 | 65 | 1012.4 |
| 20260505100905 | 59 | 25 | 5.2 | 12.2 | 0.00 | 0.00 | 0.00 | 66 | 1012.4 |
| 20260505095903 | 59 | 20 | 6.1 | 13.0 | 0.00 | 0.00 | 0.00 | 67 | 1012.4 |
| 20260505095405 | 59 | 21 | 7.0 | 13.0 | 0.00 | 0.00 | 0.00 | 66 | 1012.4 |
| 20260505094904 | 59 | 34 | 5.2 | 13.0 | 0.00 | 0.00 | 0.00 | 67 | 1012.4 |
| 20260505094405 | 59 | 35 | 7.0 | 13.0 | 0.00 | 0.00 | 0.00 | 67 | 1012.5 |
| 20260505093904 | 59 | 29 | 4.3 | 10.4 | 0.00 | 0.00 | 0.00 | 68 | 1012.5 |
| 20260505093404 | 59 | 35 | 4.3 | 10.4 | 0.00 | 0.00 | 0.00 | 67 | 1012.5 |
| 20260505092405 | 60 | 3 | 3.5 | 10.4 | 0.00 | 0.00 | 0.00 | 66 | 1012.4 |
| 20260505091903 | 61 | 29 | 5.2 | 10.4 | 0.00 | 0.00 | 0.00 | 66 | 1012.4 |
| 20260505091404 | 60 | 41 | 5.2 | 10.4 | 0.00 | 0.00 | 0.00 | 66 | 1012.5 |
| 20260505090904 | 60 | 32 | 6.1 | 10.4 | 0.00 | 0.00 | 0.00 | 66 | 1012.5 |
| 20260505085904 | 60 | 44 | 5.2 | 10.4 | 0.00 | 0.00 | 0.00 | 68 | 1012.6 |
| 20260505085404 | 59 | 27 | 5.2 | 12.2 | 0.00 | 0.00 | 0.00 | 67 | 1012.7 |
| 20260505084904 | 60 | 13 | 7.8 | 13.9 | 0.00 | 0.00 | 0.00 | 68 | 1012.7 |
| 20260505083904 | 59 | 28 | 5.2 | 12.2 | 0.00 | 0.00 | 0.00 | 69 | 1012.7 |
| 20260505082904 | 58 | 33 | 5.2 | 11.3 | 0.00 | 0.00 | 0.00 | 71 | 1012.6 |
| 20260505082404 | 59 | 20 | 6.1 | 10.4 | 0.00 | 0.00 | 0.00 | 70 | 1012.6 |
| 20260505081905 | 59 | 6 | 5.2 | 8.7 | 0.00 | 0.00 | 0.00 | 71 | 1012.6 |
| 20260505081404 | 58 | 6 | 5.2 | 10.4 | 0.00 | 0.00 | 0.00 | 69 | 1012.6 |
| 20260505075904 | 59 | 28 | 6.1 | 11.3 | 0.00 | 0.00 | 0.00 | 68 | 1012.6 |
| 20260505074904 | 58 | 28 | 4.3 | 7.8 | 0.00 | 0.00 | 0.00 | 71 | 1012.5 |
| 20260505074404 | 58 | 48 | 3.5 | 7.8 | 0.00 | 0.00 | 0.00 | 71 | 1012.5 |
| 20260505073904 | 58 | 49 | 1.7 | 6.1 | 0.00 | 0.00 | 0.00 | 76 | 1012.5 |
| 20260505073404 | 57 | 60 | 2.6 | 7.8 | 0.00 | 0.00 | 0.00 | 77 | 1012.5 |
| 20260505072903 | 57 | 26 | 2.6 | 7.8 | 0.00 | 0.00 | 0.00 | 78 | 1012.4 |
| 20260505072404 | 56 | 32 | 1.7 | 5.2 | 0.00 | 0.00 | 0.00 | 81 | 1012.4 |
| 20260505071905 | 55 | 30 | 2.6 | 7.8 | 0.00 | 0.00 | 0.00 | 82 | 1012.5 |
| 20260505071404 | 55 | 35 | 3.5 | 7.8 | 0.00 | 0.00 | 0.00 | 83 | 1012.6 |
| 20260505070904 | 55 | 32 | 4.3 | 7.8 | 0.00 | 0.00 | 0.00 | 83 | 1012.6 |
| 20260505070405 | 54 | 50 | 2.6 | 8.7 | 0.00 | 0.00 | 0.00 | 84 | 1012.6 |
| 20260505065905 | 54 | 40 | 4.3 | 8.7 | 0.00 | 0.00 | 0.00 | 84 | 1012.7 |
| 20260505065404 | 54 | 19 | 3.5 | 7.8 | 0.00 | 0.00 | 0.00 | 84 | 1012.7 |
| 20260505064904 | 54 | 5 | 2.6 | 5.2 | 0.00 | 0.00 | 0.00 | 85 | 1012.8 |
| 20260505064404 | 53 | 9 | 1.7 | 7.8 | 0.00 | 0.00 | 0.00 | 85 | 1012.8 |
| 20260505063904 | 53 | 39 | 1.7 | 4.3 | 0.00 | 0.00 | 0.00 | 85 | 1012.8 |
| 20260505062404 | 53 | 16 | 2.6 | 5.2 | 0.00 | 0.00 | 0.00 | 86 | 1013.0 |
| 20260505061405 | 53 | 16 | 3.5 | 7.8 | 0.00 | 0.00 | 0.00 | 85 | 1012.9 |
| 20260505060904 | 53 | 21 | 2.6 | 7.0 | 0.00 | 0.00 | 0.00 | 85 | 1012.9 |
| 20260505060403 | 53 | 15 | 2.6 | 5.2 | 0.00 | 0.00 | 0.00 | 86 | 1012.8 |
| 20260505055403 | 53 | 50 | 2.6 | 7.0 | 0.00 | 0.00 | 0.00 | 85 | 1012.8 |
| 20260505054904 | 53 | 20 | 2.6 | 7.8 | 0.00 | 0.00 | 0.00 | 85 | 1012.7 |
| 20260505053904 | 53 | 20 | 4.3 | 7.8 | 0.00 | 0.00 | 0.00 | 85 | 1012.7 |
| 20260505053403 | 53 | 7 | 4.3 | 7.0 | 0.00 | 0.00 | 0.00 | 85 | 1012.6 |
| 20260505052904 | 53 | 10 | 4.3 | 7.8 | 0.00 | 0.00 | 0.00 | 85 | 1012.6 |
| 20260505052404 | 53 | 15 | 2.6 | 6.1 | 0.00 | 0.00 | 0.00 | 85 | 1012.7 |
| 20260505051404 | 54 | 47 | 2.6 | 2.6 | 0.00 | 0.00 | 0.00 | 85 | 1012.6 |
| 20260505050904 | 54 | 34 | 2.6 | 5.2 | 0.00 | 0.00 | 0.00 | 85 | 1012.5 |
| 20260505050404 | 54 | 54 | 2.6 | 5.2 | 0.00 | 0.00 | 0.00 | 85 | 1012.6 |
| 20260505041406 | 54 | 35 | 2.6 | 5.2 | 0.00 | 0.00 | 0.00 | 84 | 1012.6 |
| 20260505040903 | 54 | 39 | 1.7 | 6.1 | 0.00 | 0.00 | 0.00 | 84 | 1012.6 |
| 20260505040403 | 54 | 12 | 3.5 | 7.8 | 0.00 | 0.00 | 0.00 | 84 | 1012.6 |
| 20260505035405 | 54 | 34 | 2.6 | 6.1 | 0.00 | 0.00 | 0.00 | 84 | 1012.7 |
| 20260505034903 | 55 | 47 | 2.6 | 7.0 | 0.00 | 0.00 | 0.00 | 83 | 1012.7 |
| 20260505034404 | 55 | 33 | 1.7 | 5.2 | 0.00 | 0.00 | 0.00 | 83 | 1012.7 |
| 20260505033904 | 55 | 17 | 3.5 | 5.2 | 0.00 | 0.00 | 0.00 | 83 | 1012.8 |
| 20260505033404 | 55 | 26 | 3.5 | 6.1 | 0.00 | 0.00 | 0.00 | 83 | 1012.8 |
| 20260505032904 | 55 | 39 | 3.5 | 7.0 | 0.00 | 0.00 | 0.00 | 83 | 1012.8 |
| 20260505032404 | 55 | 34 | 2.6 | 6.1 | 0.00 | 0.00 | 0.00 | 83 | 1012.7 |
| 20260505031903 | 55 | 39 | 2.6 | 6.1 | 0.00 | 0.00 | 0.00 | 83 | 1012.8 |
| 20260505031405 | 55 | 76 | 0.9 | 2.6 | 0.00 | 0.00 | 0.00 | 83 | 1012.9 |
| 20260505030905 | 55 | 55 | 1.7 | 5.2 | 0.00 | 0.00 | 0.00 | 83 | 1012.9 |
| 20260505030403 | 55 | 55 | 1.7 | 2.6 | 0.00 | 0.00 | 0.00 | 83 | 1012.9 |
| 20260505025904 | 55 | 40 | 0.9 | 4.3 | 0.00 | 0.00 | 0.00 | 82 | 1012.9 |
| 20260505025403 | 55 | 64 | 1.7 | 2.6 | 0.00 | 0.00 | 0.00 | 82 | 1012.9 |
| 20260505024904 | 55 | 75 | 0.9 | 5.2 | 0.00 | 0.00 | 0.00 | 82 | 1012.9 |
| 20260505024403 | 55 | 60 | 2.6 | 5.2 | 0.00 | 0.00 | 0.00 | 82 | 1012.9 |
| 20260505023904 | 55 | 46 | 1.7 | 4.3 | 0.00 | 0.00 | 0.00 | 82 | 1012.9 |
| 20260505023404 | 56 | 64 | 1.7 | 2.6 | 0.00 | 0.00 | 0.00 | 82 | 1012.8 |
| 20260505022904 | 56 | 64 | 1.7 | 5.2 | 0.00 | 0.00 | 0.00 | 82 | 1012.8 |
| 20260505022404 | 56 | 44 | 1.7 | 5.2 | 0.00 | 0.00 | 0.00 | 82 | 1012.9 |
| 20260505021904 | 56 | 40 | 2.6 | 6.1 | 0.00 | 0.00 | 0.00 | 82 | 1012.9 |
| 20260505021405 | 56 | 44 | 0.9 | 2.6 | 0.00 | 0.00 | 0.00 | 82 | 1012.9 |
| 20260505020904 | 56 | 50 | 1.7 | 2.6 | 0.00 | 0.00 | 0.00 | 82 | 1012.9 |
| 20260505020404 | 56 | 46 | 1.7 | 5.2 | 0.00 | 0.00 | 0.00 | 82 | 1012.9 |
| 20260505015903 | 56 | 30 | 1.7 | 4.3 | 0.00 | 0.00 | 0.00 | 82 | 1013.0 |
| 20260505015404 | 56 | 39 | 0.9 | 2.6 | 0.00 | 0.00 | 0.00 | 82 | 1013.1 |
| 20260505014903 | 56 | 60 | 2.6 | 6.1 | 0.00 | 0.00 | 0.00 | 82 | 1013.1 |
| 20260505014404 | 56 | 43 | 1.7 | 7.0 | 0.00 | 0.00 | 0.00 | 82 | 1013.3 |
| 20260505013904 | 56 | 48 | 2.6 | 7.0 | 0.00 | 0.00 | 0.00 | 82 | 1013.3 |
| 20260505013403 | 56 | 48 | 2.6 | 7.8 | 0.00 | 0.00 | 0.00 | 82 | 1013.2 |
| 20260505012904 | 56 | 52 | 1.7 | 7.0 | 0.00 | 0.00 | 0.00 | 82 | 1013.3 |
| 20260505012405 | 56 | 40 | 3.5 | 7.0 | 0.00 | 0.00 | 0.00 | 82 | 1013.3 |
| 20260505011904 | 56 | 45 | 4.3 | 7.0 | 0.00 | 0.00 | 0.00 | 83 | 1013.3 |
| 20260505011404 | 56 | 28 | 3.5 | 7.0 | 0.00 | 0.00 | 0.00 | 83 | 1013.3 |
| 20260505010903 | 56 | 41 | 2.6 | 6.1 | 0.00 | 0.00 | 0.00 | 83 | 1013.4 |
| 20260505010404 | 56 | 20 | 1.7 | 2.6 | 0.00 | 0.00 | 0.00 | 83 | 1013.4 |
| 20260505005403 | 56 | 21 | 1.7 | 5.2 | 0.00 | 0.00 | 0.00 | 84 | 1013.3 |
| 20260505004903 | 56 | 42 | 2.6 | 5.2 | 0.00 | 0.00 | 0.00 | 84 | 1013.4 |
| 20260505004403 | 56 | 42 | 1.7 | 5.2 | 0.00 | 0.00 | 0.00 | 84 | 1013.5 |
| 20260505003903 | 56 | 40 | 1.7 | 6.1 | 0.00 | 0.00 | 0.00 | 85 | 1013.6 |
| 20260505003404 | 56 | 32 | 1.7 | 7.8 | 0.00 | 0.00 | 0.00 | 85 | 1013.6 |
| 20260505002905 | 56 | 30 | 1.7 | 2.6 | 0.00 | 0.00 | 0.00 | 86 | 1013.5 |
| 20260505002403 | 56 | 107 | 0.0 | 1.7 | 0.00 | 0.00 | 0.00 | 87 | 1013.5 |
| 20260505001404 | 56 | 107 | 0.0 | 2.6 | 0.00 | 0.00 | 0.00 | 87 | 1013.5 |
| 20260505000903 | 56 | 107 | 0.0 | 2.6 | 0.00 | 0.00 | 0.00 | 86 | 1013.6 |
| 20260505000405 | 56 | 107 | 0.0 | 2.6 | 0.00 | 0.00 | 0.00 | 87 | 1013.6 |
| 20260504235906 | 56 | 107 | 1.7 | 2.6 | 0.00 | 0.00 | 0.00 | 87 | 1013.7 |
| 20260504235404 | 56 | 107 | 0.9 | 2.6 | 0.00 | 0.00 | 0.00 | 86 | 1013.8 |
| 20260504234904 | 56 | 107 | 0.9 | 1.7 | 0.00 | 0.00 | 0.00 | 86 | 1013.8 |
| 20260504234405 | 56 | 107 | 0.0 | 1.7 | 0.00 | 0.00 | 0.00 | 86 | 1013.6 |
| 20260504233903 | 56 | 107 | 0.0 | 1.7 | 0.00 | 0.00 | 0.00 | 86 | 1013.6 |
| 20260504233404 | 56 | 107 | 0.0 | 2.6 | 0.00 | 0.00 | 0.00 | 86 | 1013.6 |
| 20260504232904 | 56 | 107 | 0.0 | 0.0 | 0.00 | 0.00 | 0.00 | 86 | 1013.6 |
| 20260504232404 | 56 | 107 | 0.0 | 0.0 | 0.00 | 0.00 | 0.00 | 86 | 1013.6 |
| 20260504231905 | 56 | 107 | 0.0 | 1.7 | 0.00 | 0.00 | 0.00 | 86 | 1013.6 |
| 20260504231404 | 56 | 107 | 0.9 | 2.6 | 0.00 | 0.00 | 0.00 | 86 | 1013.6 |
| 20260504230403 | 56 | 107 | 0.0 | 0.9 | 0.00 | 0.00 | 0.00 | 85 | 1013.7 |
| 20260504225904 | 56 | 107 | 0.0 | 0.9 | 0.00 | 0.00 | 0.00 | 85 | 1013.7 |
| 20260504225405 | 56 | 107 | 0.9 | 2.6 | 0.00 | 0.00 | 0.00 | 85 | 1013.7 |
| 20260504224905 | 56 | 107 | 0.0 | 1.7 | 0.00 | 0.00 | 0.00 | 85 | 1013.7 |
| 20260504224404 | 56 | 107 | 0.0 | 1.7 | 0.00 | 0.00 | 0.00 | 85 | 1013.8 |
| 20260504223904 | 56 | 107 | 0.0 | 1.7 | 0.00 | 0.00 | 0.00 | 85 | 1013.8 |
| 20260504223404 | 56 | 107 | 0.0 | 0.9 | 0.00 | 0.00 | 0.00 | 85 | 1013.8 |
| 20260504222903 | 57 | 107 | 0.9 | 2.6 | 0.00 | 0.00 | 0.00 | 85 | 1013.8 |
| 20260504222404 | 57 | 107 | 0.9 | 2.6 | 0.00 | 0.00 | 0.00 | 85 | 1013.9 |
| 20260504221405 | 57 | 107 | 0.0 | 1.7 | 0.00 | 0.00 | 0.00 | 85 | 1013.9 |
| 20260504220904 | 57 | 107 | 0.0 | 1.7 | 0.00 | 0.00 | 0.00 | 84 | 1013.9 |
| 20260504220403 | 57 | 107 | 1.7 | 2.6 | 0.00 | 0.00 | 0.00 | 84 | 1014.0 |
| 20260504215904 | 57 | 107 | 1.7 | 2.6 | 0.00 | 0.00 | 0.00 | 84 | 1014.0 |
| 20260504214904 | 57 | 106 | 1.7 | 2.6 | 0.00 | 0.00 | 0.00 | 83 | 1014.1 |
| 20260504214405 | 57 | 123 | 2.6 | 2.6 | 0.00 | 0.00 | 0.00 | 83 | 1014.0 |
| 20260504213404 | 57 | 79 | 0.9 | 2.6 | 0.00 | 0.00 | 0.00 | 83 | 1014.0 |
| 20260504212905 | 58 | 95 | 1.7 | 2.6 | 0.00 | 0.00 | 0.00 | 82 | 1014.0 |
| 20260504212404 | 58 | 112 | 2.6 | 5.2 | 0.00 | 0.00 | 0.00 | 82 | 1014.1 |
| 20260504211403 | 58 | 89 | 1.7 | 6.1 | 0.00 | 0.00 | 0.00 | 83 | 1014.0 |
| 20260504210904 | 58 | 40 | 0.9 | 2.6 | 0.00 | 0.00 | 0.00 | 83 | 1013.9 |
| 20260504210404 | 58 | 15 | 0.9 | 2.6 | 0.00 | 0.00 | 0.00 | 84 | 1013.9 |
| 20260504205904 | 58 | 24 | 0.0 | 2.6 | 0.00 | 0.00 | 0.00 | 84 | 1013.9 |
| 20260504205404 | 58 | 17 | 2.6 | 5.2 | 0.00 | 0.00 | 0.00 | 84 | 1013.9 |
| 20260504203904 | 58 | 330 | 0.0 | 2.6 | 0.00 | 0.00 | 0.00 | 81 | 1013.8 |
| 20260504203404 | 58 | 343 | 0.9 | 2.6 | 0.00 | 0.00 | 0.00 | 81 | 1013.8 |
| 20260504202904 | 58 | 98 | 0.0 | 1.7 | 0.00 | 0.00 | 0.00 | 81 | 1013.8 |
| 20260504202404 | 58 | 98 | 0.0 | 0.0 | 0.00 | 0.00 | 0.00 | 81 | 1013.9 |
| 20260504201904 | 58 | 98 | 0.0 | 0.0 | 0.00 | 0.00 | 0.00 | 81 | 1013.9 |
| 20260504201404 | 58 | 98 | 0.0 | 0.0 | 0.00 | 0.00 | 0.00 | 81 | 1013.9 |
| 20260504200904 | 58 | 98 | 0.0 | 1.7 | 0.00 | 0.00 | 0.00 | 80 | 1013.9 |
| 20260504200405 | 59 | 98 | 0.9 | 2.6 | 0.00 | 0.00 | 0.00 | 80 | 1013.8 |
| 20260504195904 | 59 | 98 | 0.9 | 2.6 | 0.00 | 0.00 | 0.00 | 80 | 1013.7 |
| 20260504194904 | 59 | 100 | 1.7 | 2.6 | 0.00 | 0.00 | 0.00 | 79 | 1013.7 |
| 20260504194404 | 59 | 112 | 1.7 | 2.6 | 0.00 | 0.00 | 0.00 | 79 | 1013.7 |
| 20260504193904 | 59 | 104 | 0.9 | 2.6 | 0.00 | 0.00 | 0.00 | 79 | 1013.7 |
| 20260504193403 | 59 | 313 | 0.9 | 1.7 | 0.00 | 0.00 | 0.00 | 79 | 1013.7 |
| 20260504192905 | 59 | 313 | 0.0 | 0.9 | 0.00 | 0.00 | 0.00 | 79 | 1013.6 |
| 20260504192403 | 59 | 313 | 0.0 | 0.9 | 0.00 | 0.00 | 0.00 | 79 | 1013.6 |
| 20260504191904 | 59 | 313 | 0.0 | 1.7 | 0.00 | 0.00 | 0.00 | 79 | 1013.6 |
| 20260504191404 | 59 | 313 | 0.0 | 2.6 | 0.00 | 0.00 | 0.00 | 79 | 1013.5 |
| 20260504190905 | 59 | 303 | 0.0 | 2.6 | 0.00 | 0.00 | 0.00 | 79 | 1013.5 |
| 20260504190405 | 59 | 96 | 0.0 | 2.6 | 0.00 | 0.00 | 0.00 | 79 | 1013.4 |
| 20260504185404 | 60 | 96 | 1.7 | 2.6 | 0.00 | 0.00 | 0.00 | 78 | 1013.5 |
| 20260504184904 | 60 | 96 | 0.9 | 2.6 | 0.00 | 0.00 | 0.00 | 77 | 1013.4 |
| 20260504184403 | 60 | 99 | 2.6 | 2.6 | 0.00 | 0.00 | 0.00 | 77 | 1013.4 |
| 20260504183904 | 60 | 100 | 1.7 | 2.6 | 0.00 | 0.00 | 0.00 | 77 | 1013.4 |
| 20260504183404 | 60 | 117 | 1.7 | 2.6 | 0.00 | 0.00 | 0.00 | 77 | 1013.4 |
| 20260504182405 | 60 | 68 | 0.9 | 2.6 | 0.00 | 0.00 | 0.00 | 77 | 1013.3 |
| 20260504181903 | 60 | 101 | 1.7 | 5.2 | 0.00 | 0.00 | 0.00 | 76 | 1013.4 |
| 20260504181404 | 60 | 104 | 1.7 | 2.6 | 0.00 | 0.00 | 0.00 | 76 | 1013.4 |
| 20260504180904 | 60 | 98 | 1.7 | 2.6 | 0.00 | 0.00 | 0.00 | 76 | 1013.4 |
| 20260504175904 | 61 | 103 | 1.7 | 2.6 | 0.00 | 0.00 | 0.00 | 75 | 1013.3 |
| 20260504174903 | 61 | 98 | 1.7 | 2.6 | 0.00 | 0.00 | 0.00 | 75 | 1013.3 |
| 20260504174405 | 61 | 100 | 2.6 | 5.2 | 0.00 | 0.00 | 0.00 | 75 | 1013.3 |
| 20260504173905 | 61 | 121 | 1.7 | 2.6 | 0.00 | 0.00 | 0.00 | 74 | 1013.3 |
| 20260504173403 | 61 | 96 | 1.7 | 2.6 | 0.00 | 0.00 | 0.00 | 74 | 1013.3 |
| 20260504172904 | 61 | 138 | 2.6 | 5.2 | 0.00 | 0.00 | 0.00 | 73 | 1013.3 |
| 20260504172404 | 62 | 146 | 3.5 | 5.2 | 0.00 | 0.00 | 0.00 | 73 | 1013.2 |
| 20260504171903 | 62 | 140 | 2.6 | 5.2 | 0.00 | 0.00 | 0.00 | 73 | 1013.3 |
| 20260504171405 | 62 | 104 | 2.6 | 5.2 | 0.00 | 0.00 | 0.00 | 73 | 1013.3 |
| 20260504170903 | 62 | 144 | 3.5 | 5.2 | 0.00 | 0.00 | 0.00 | 72 | 1013.3 |
| 20260504170403 | 63 | 140 | 2.6 | 5.2 | 0.00 | 0.00 | 0.00 | 72 | 1013.3 |
| 20260504160405 | 63 | 117 | 4.3 | 7.8 | 0.00 | 0.00 | 0.00 | 71 | 1013.4 |